FW1098 Weather Reports


time (UTC)temp
F
wind
direction
speed
knots
gust
knots
rain 1hr
in
rain 24hr
in
rain mn
in
humidity
%
barometer
mb
20260831054529 72 24 0.0 0.0 0.00 0.00 0.00 92 1019.8
20260831053033 72 24 0.0 0.0 0.00 0.00 0.00 92 1019.8
20260831051527 72 24 0.0 0.0 0.00 0.00 0.00 92 1020.0
20260831050038 72 24 0.0 0.0 0.00 0.00 0.00 92 1020.1
20260831044523 73 24 0.0 0.0 0.00 0.00 0.00 92 1020.1
20260831043024 73 24 0.0 0.0 0.00 0.00 0.00 92 1020.2
20260831041520 73 24 0.0 0.0 0.00 0.00 0.00 91 1020.1
20260831040038 73 24 0.0 0.0 0.00 0.00 0.00 91 1020.1
20260831034515 74 24 0.0 0.0 0.00 0.00 0.00 91 1020.0
20260831033018 74 24 0.0 0.0 0.00 0.00 0.00 90 1020.1
20260831031514 74 24 0.0 0.0 0.00 0.00 0.00 90 1020.2
20260831030027 75 24 0.0 0.0 0.00 0.00 0.00 90 1020.0
20260831024516 75 24 0.0 0.0 0.00 0.00 0.00 89 1020.0
20260831023012 75 24 0.0 0.0 0.00 0.00 0.00 89 1019.9
20260831021513 76 24 0.0 0.0 0.00 0.00 0.00 88 1020.1
20260831020012 76 24 0.0 0.0 0.00 0.00 0.00 87 1020.0
20260831014511 77 24 0.0 0.0 0.00 0.00 0.00 87 1019.9
20260831013011 77 24 0.0 0.0 0.00 0.00 0.00 86 1020.0
20260831011510 78 24 0.0 0.0 0.00 0.00 0.00 85 1019.9
20260831010010 79 24 0.0 0.0 0.00 0.00 0.00 84 1019.8
20260831004514 80 24 0.0 0.0 0.00 0.00 0.00 84 1019.6
20260831003010 80 24 0.0 0.0 0.00 0.00 0.00 83 1019.7
20260831001509 81 24 0.0 0.0 0.00 0.00 0.00 82 1019.4
20260831000008 81 24 0.0 0.0 0.00 0.00 0.00 81 1019.4
20260830234614 81 24 0.0 0.9 0.00 0.00 0.00 82 1019.3
20260830233014 82 347 0.0 1.7 0.00 0.00 0.00 81 1019.1
20260830231505 83 347 0.0 1.7 0.00 0.00 0.00 79 1019.1
20260830230005 82 347 0.0 1.7 0.00 0.00 0.00 78 1019.2
20260830224505 84 347 0.0 3.5 0.00 0.00 0.00 78 1019.2
20260830223004 85 347 0.0 2.6 0.00 0.00 0.00 73 1019.1
20260830221503 85 350 0.9 1.7 0.00 0.00 0.00 72 1019.0
20260830220008 85 351 0.0 0.9 0.00 0.00 0.00 73 1019.0
20260830214502 86 355 0.0 3.5 0.00 0.00 0.00 70 1019.0
20260830213001 88 355 0.9 3.5 0.00 0.00 0.00 67 1019.0
20260830211600 88 19 0.0 3.5 0.00 0.00 0.00 67 1019.1
20260830210059 88 21 0.0 5.2 0.00 0.00 0.00 69 1019.2
20260830204605 86 314 0.9 3.5 0.00 0.00 0.00 71 1019.4
20260830203056 88 299 0.9 3.5 0.00 0.00 0.00 69 1020.1
20260830201606 84 283 0.0 1.7 0.00 0.00 0.00 73 1019.5
20260830194553 87 283 0.0 3.5 0.00 0.00 0.00 68 1019.8
20260830193049 87 279 0.0 3.5 0.00 0.00 0.00 67 1019.9
20260830191617 87 320 0.9 5.2 0.00 0.00 0.00 68 1020.2
20260830190104 85 319 0.0 2.6 0.00 0.00 0.00 71 1020.2
20260830184545 87 318 0.9 3.5 0.00 0.00 0.00 68 1020.4
20260830183043 85 307 2.6 5.2 0.00 0.00 0.00 69 1020.6
20260830181543 85 338 0.9 4.3 0.00 0.00 0.00 72 1020.7
20260830180043 84 360 0.0 7.0 0.00 0.00 0.00 72 1020.7
20260830174542 84 348 0.9 3.5 0.00 0.00 0.00 75 1020.9
20260830173046 85 351 0.0 4.3 0.00 0.00 0.00 76 1021.1
20260830171536 84 355 0.0 4.3 0.00 0.00 0.00 76 1021.5
20260830170034 83 28 0.0 1.7 0.00 0.00 0.00 79 1021.8
20260830164531 82 40 0.0 3.5 0.00 0.00 0.00 82 1022.0
20260830163038 81 40 0.9 3.5 0.00 0.00 0.00 82 1022.4
20260830161527 81 33 0.0 0.9 0.00 0.00 0.00 85 1022.6
20260830160034 80 33 0.9 2.6 0.00 0.00 0.00 84 1022.8
20260830154525 79 33 0.0 3.5 0.00 0.00 0.00 87 1022.8
20260830153021 79 34 0.0 3.5 0.00 0.00 0.00 86 1022.8
20260830151518 77 36 0.0 1.7 0.00 0.00 0.00 91 1022.9
20260830150022 77 36 0.0 1.7 0.00 0.00 0.00 91 1022.8
20260830144524 77 36 0.0 1.7 0.00 0.00 0.00 93 1022.5
20260830143013 76 36 0.9 3.5 0.00 0.00 0.00 94 1022.7
20260830141515 75 44 0.0 1.7 0.00 0.00 0.00 95 1022.6
20260830140009 75 44 0.9 3.5 0.00 0.00 0.00 96 1022.7
20260830134506 74 47 0.0 0.9 0.00 0.00 0.00 98 1022.7
20260830133004 74 47 0.0 1.7 0.00 0.00 0.00 98 1022.6
20260830131504 74 47 0.0 0.0 0.00 0.00 0.00 97 1022.8
20260830130002 74 47 0.0 0.0 0.00 0.00 0.00 98 1022.6
20260830124559 74 47 0.0 1.7 0.00 0.00 0.00 97 1022.5
20260830123059 74 47 0.0 0.0 0.00 0.00 0.00 97 1022.3
20260830121552 73 47 0.0 1.7 0.00 0.00 0.00 97 1022.4
20260830114552 73 47 0.0 0.0 0.00 0.00 0.00 97 1021.8
20260830113045 73 47 0.0 0.9 0.00 0.00 0.00 97 1021.6
20260830111544 73 47 0.0 1.7 0.00 0.00 0.00 97 1021.7
20260830110043 72 47 0.0 0.9 0.00 0.00 0.00 97 1021.6
20260830104541 72 47 0.0 0.0 0.00 0.00 0.00 97 1021.5
20260830103040 72 47 0.0 0.0 0.00 0.00 0.00 97 1021.2
20260830101539 72 47 0.0 0.0 0.00 0.00 0.00 97 1020.8
20260830100041 72 47 0.0 0.0 0.00 0.00 0.00 96 1020.5
20260830094541 72 47 0.0 0.0 0.00 0.00 0.00 96 1020.5
20260830093038 72 47 0.0 0.0 0.00 0.00 0.00 96 1020.5
20260830091537 72 47 0.0 0.0 0.00 0.00 0.00 96 1020.5
20260830090037 72 47 0.0 0.0 0.00 0.00 0.00 96 1020.4
20260830084542 72 47 0.0 0.0 0.00 0.00 0.00 96 1020.4
20260830083040 72 47 0.0 0.0 0.00 0.00 0.00 96 1020.6
20260830081538 72 47 0.0 0.9 0.00 0.00 0.00 96 1020.5
20260830080039 72 47 0.0 0.0 0.00 0.00 0.00 96 1020.5
20260830074538 71 47 0.0 0.0 0.00 0.00 0.00 96 1020.5
20260830073031 71 47 0.0 0.0 0.00 0.00 0.00 95 1020.8
20260830071531 71 47 0.0 0.0 0.00 0.00 0.00 95 1020.8
20260830070041 71 47 0.0 0.0 0.00 0.00 0.00 95 1020.7
20260830064528 71 47 0.0 0.0 0.00 0.00 0.00 95 1020.7
20260830063027 72 47 0.0 0.0 0.00 0.00 0.00 95 1021.0
20260830061525 72 47 0.0 0.0 0.00 0.00 0.00 95 1021.1
20260830060041 72 47 0.0 0.0 0.00 0.00 0.00 95 1021.0